When you browse on this site, cookies collect data to enhance your experience and personalize the content and advertising you see.
Visit our Privacy Policy to learn more. By continuing to use the site, you agree to this use of cookies and data.
  • In Czech Republic
  • List of Countries
  • For 7 days
  • Water Temperature
  • Satellite Maps
  • Weather Map
  • Weather Widgets
  • user-avatar
    Login

    Hourly Weather Kokpekty

    Today, 21 January, Monday

    Time Temperature Precipitation Wind Pressure Humidity
    00:00 -11°C° 0 mm 4 mps 712 mmHg 81%
    01:00 -12°C° 0 mm 5 mps 712 mmHg 83%
    02:00 -11°C° 0 mm 5 mps 712 mmHg 86%
    03:00 -11°C° 0 mm 5 mps 713 mmHg 88%
    04:00 -11°C° 0 mm 6 mps 713 mmHg 91%
    05:00 -10°C° 0 mm 6 mps 713 mmHg 93%
    06:00 -11°C° 0.1 mm 7 mps 713 mmHg 93%
    07:00 -9°C° 0.1 mm 7 mps 714 mmHg 93%
    08:00 -8°C° 0.1 mm 7 mps 714 mmHg 93%
    09:00 -7°C° 0.1 mm 7 mps 714 mmHg 92%
    10:00 -7°C° 0.1 mm 7 mps 714 mmHg 92%
    11:00 -7°C° 0.1 mm 8 mps 715 mmHg 91%
    12:00 -7°C° 0.2 mm 8 mps 715 mmHg 91%
    13:00 -7°C° 0.2 mm 8 mps 715 mmHg 90%
    14:00 -7°C° 0.2 mm 8 mps 716 mmHg 90%
    15:00 -7°C° 0.1 mm 7 mps 716 mmHg 91%
    16:00 -7°C° 0.1 mm 7 mps 717 mmHg 91%
    17:00 -6°C° 0.1 mm 6 mps 718 mmHg 91%
    18:00 -6°C° 0.1 mm 6 mps 718 mmHg 92%
    19:00 -7°C° 0.1 mm 5 mps 719 mmHg 93%
    20:00 -7°C° 0.1 mm 5 mps 719 mmHg 93%
    21:00 -8°C° 0.1 mm 4 mps 720 mmHg 94%
    22:00 -8°C° 0.1 mm 4 mps 720 mmHg 95%
    23:00 -8°C° 0.1 mm 3 mps 721 mmHg 95%

    Tomorrow, 22 January, Tuesday

    Time Temperature Precipitation Wind Pressure Humidity
    00:00 -10°C° 0 mm 3 mps 721 mmHg 96%
    01:00 -10°C° 0 mm 2 mps 721 mmHg 97%
    02:00 -12°C° 0 mm 2 mps 721 mmHg 97%
    03:00 -11°C° 0 mm 1 mps 721 mmHg 97%
    04:00 -12°C° 0 mm 1 mps 722 mmHg 98%
    05:00 -12°C° 0 mm 1 mps 722 mmHg 98%
    06:00 -12°C° 0 mm 1 mps 722 mmHg 98%
    07:00 -12°C° 0 mm 1 mps 722 mmHg 98%
    08:00 -13°C° 0 mm 1 mps 722 mmHg 97%
    09:00 -11°C° 0 mm 1 mps 723 mmHg 96%
    10:00 -10°C° 0 mm 1 mps 723 mmHg 95%
    11:00 -9°C° 0 mm 1 mps 723 mmHg 93%
    12:00 -8°C° 0 mm 1 mps 723 mmHg 93%
    13:00 -7°C° 0 mm 1 mps 722 mmHg 93%
    14:00 -7°C° 0 mm 1 mps 722 mmHg 93%
    15:00 -8°C° 0 mm 1 mps 722 mmHg 93%
    16:00 -10°C° 0 mm 2 mps 722 mmHg 93%
    17:00 -13°C° 0 mm 2 mps 721 mmHg 93%
    18:00 -13°C° 0 mm 2 mps 721 mmHg 93%
    19:00 -14°C° 0 mm 2 mps 721 mmHg 92%
    20:00 -14°C° 0 mm 2 mps 721 mmHg 92%
    21:00 -15°C° 0 mm 2 mps 721 mmHg 92%
    22:00 -16°C° 0 mm 3 mps 721 mmHg 92%
    23:00 -17°C° 0 mm 3 mps 721 mmHg 93%

    Day after tomorrow, 23 January, Wednesday

    Time Temperature Precipitation Wind Pressure Humidity
    00:00 -17°C° 0 mm 3 mps 721 mmHg 94%
    01:00 -17°C° 0 mm 3 mps 721 mmHg 94%
    02:00 -18°C° 0 mm 3 mps 720 mmHg 95%
    03:00 -17°C° 0 mm 2 mps 720 mmHg 96%
    04:00 -17°C° 0 mm 2 mps 720 mmHg 96%
    05:00 -18°C° 0 mm 2 mps 720 mmHg 96%
    06:00 -18°C° 0 mm 2 mps 720 mmHg 96%
    07:00 -18°C° 0 mm 2 mps 720 mmHg 96%
    08:00 -18°C° 0 mm 2 mps 720 mmHg 96%
    09:00 -17°C° 0 mm 2 mps 720 mmHg 95%
    10:00 -17°C° 0 mm 3 mps 720 mmHg 94%
    11:00 -15°C° 0 mm 3 mps 720 mmHg 93%
    12:00 -14°C° 0 mm 3 mps 720 mmHg 93%
    13:00 -14°C° 0 mm 3 mps 720 mmHg 93%
    14:00 -13°C° 0 mm 3 mps 719 mmHg 93%
    15:00 -14°C° 0 mm 3 mps 719 mmHg 93%
    16:00 -16°C° 0 mm 3 mps 719 mmHg 93%
    17:00 -17°C° 0 mm 3 mps 719 mmHg 94%
    18:00 -17°C° 0 mm 3 mps 719 mmHg 94%
    19:00 -18°C° 0 mm 3 mps 720 mmHg 94%
    20:00 -19°C° 0 mm 3 mps 720 mmHg 94%
    21:00 -19°C° 0 mm 3 mps 720 mmHg 94%
    22:00 -19°C° 0 mm 3 mps 720 mmHg 95%
    23:00 -19°C° 0 mm 3 mps 720 mmHg 96%

    24 January, Thursday

    Time Temperature Precipitation Wind Pressure Humidity
    00:00 -19°C° 0 mm 3 mps 720 mmHg 96%
    01:00 -19°C° 0 mm 3 mps 720 mmHg 96%
    02:00 -19°C° 0 mm 3 mps 719 mmHg 96%
    03:00 -19°C° 0 mm 3 mps 719 mmHg 96%
    04:00 -20°C° 0 mm 4 mps 719 mmHg 96%
    05:00 -20°C° 0 mm 4 mps 719 mmHg 96%
    06:00 -19°C° 0 mm 4 mps 719 mmHg 96%
    07:00 -19°C° 0 mm 4 mps 719 mmHg 96%
    08:00 -18°C° 0 mm 4 mps 720 mmHg 96%
    09:00 -16°C° 0 mm 4 mps 720 mmHg 95%
    10:00 -14°C° 0 mm 4 mps 720 mmHg 94%
    11:00 -12°C° 0 mm 5 mps 721 mmHg 93%
    12:00 -10°C° 0 mm 4 mps 721 mmHg 92%
    13:00 -9°C° 0 mm 4 mps 721 mmHg 92%
    14:00 -8°C° 0 mm 4 mps 721 mmHg 91%
    15:00 -9°C° 0.1 mm 4 mps 722 mmHg 92%
    16:00 -8°C° 0.1 mm 3 mps 722 mmHg 94%
    17:00 -8°C° 0.1 mm 2 mps 722 mmHg 95%
    18:00 -9°C° 0.1 mm 2 mps 723 mmHg 96%
    19:00 -9°C° 0.1 mm 2 mps 724 mmHg 96%
    20:00 -10°C° 0.1 mm 2 mps 724 mmHg 97%
    21:00 -12°C° 0.1 mm 2 mps 725 mmHg 97%
    22:00 -14°C° 0.1 mm 3 mps 725 mmHg 97%
    23:00 -15°C° 0.1 mm 3 mps 725 mmHg 97%

    25 January, Friday

    Time Temperature Precipitation Wind Pressure Humidity
    00:00 -16°C° 0 mm 3 mps 725 mmHg 96%
    01:00 -17°C° 0 mm 3 mps 725 mmHg 96%
    02:00 -19°C° 0 mm 3 mps 725 mmHg 96%
    03:00 -19°C° 0 mm 3 mps 725 mmHg 96%
    04:00 -19°C° 0 mm 3 mps 725 mmHg 96%
    05:00 -18°C° 0 mm 2 mps 725 mmHg 96%
    06:00 -18°C° 0 mm 2 mps 726 mmHg 96%
    07:00 -17°C° 0 mm 2 mps 726 mmHg 96%
    08:00 -17°C° 0 mm 2 mps 726 mmHg 96%
    09:00 -15°C° 0 mm 2 mps 726 mmHg 95%
    10:00 -14°C° 0 mm 3 mps 726 mmHg 94%
    11:00 -13°C° 0 mm 3 mps 725 mmHg 93%
    12:00 -12°C° 0 mm 3 mps 725 mmHg 92%
    13:00 -11°C° 0 mm 4 mps 724 mmHg 91%
    14:00 -11°C° 0 mm 5 mps 724 mmHg 91%
    15:00 -10°C° 0 mm 5 mps 724 mmHg 91%
    16:00 -10°C° 0 mm 5 mps 724 mmHg 91%
    17:00 -9°C° 0 mm 4 mps 724 mmHg 91%
    18:00 -10°C° 0 mm 5 mps 723 mmHg 90%
    19:00 -11°C° 0 mm 5 mps 723 mmHg 90%
    20:00 -11°C° 0 mm 6 mps 723 mmHg 90%
    21:00 -11°C° 0 mm 6 mps 723 mmHg 89%
    22:00 -11°C° 0 mm 6 mps 722 mmHg 88%
    23:00 -12°C° 0 mm 6 mps 722 mmHg 87%

    26 January, Saturday

    Time Temperature Precipitation Wind Pressure Humidity
    00:00 -13°C° 0 mm 7 mps 722 mmHg 88%
    01:00 -13°C° 0 mm 7 mps 721 mmHg 88%
    02:00 -13°C° 0 mm 7 mps 721 mmHg 88%
    03:00 -13°C° 0 mm 7 mps 721 mmHg 88%
    04:00 -13°C° 0 mm 7 mps 720 mmHg 88%
    05:00 -13°C° 0 mm 7 mps 720 mmHg 88%
    06:00 -13°C° 0 mm 7 mps 720 mmHg 89%
    07:00 -12°C° 0 mm 6 mps 720 mmHg 89%
    08:00 -12°C° 0 mm 6 mps 720 mmHg 89%
    09:00 -11°C° 0 mm 6 mps 720 mmHg 89%
    10:00 -12°C° 0 mm 7 mps 720 mmHg 90%
    11:00 -11°C° 0 mm 7 mps 720 mmHg 90%
    12:00 -9°C° 0 mm 7 mps 720 mmHg 90%
    13:00 -8°C° 0 mm 7 mps 720 mmHg 89%
    14:00 -8°C° 0 mm 7 mps 720 mmHg 89%
    15:00 -8°C° 0 mm 6 mps 720 mmHg 89%
    16:00 -8°C° 0 mm 6 mps 720 mmHg 89%
    17:00 -7°C° 0 mm 5 mps 720 mmHg 89%
    18:00 -8°C° 0 mm 5 mps 720 mmHg 90%
    19:00 -8°C° 0 mm 5 mps 720 mmHg 90%
    20:00 -8°C° 0 mm 4 mps 719 mmHg 90%
    21:00 -9°C° 0 mm 4 mps 719 mmHg 90%
    22:00 -10°C° 0 mm 4 mps 719 mmHg 89%
    23:00 -11°C° 0 mm 4 mps 718 mmHg 89%
    Show more